[Date Prev][Date Next][Thread Prev][Thread Next][Date Index][Thread Index]

[jamsat-news:1104] jas2info #144




========================   ºÇ¿·¾ðÊó   ==============================

        Last updated ¡§Thu.17-Jun.-1999 17:30 (JST) #144

====================================================================
   
     ±ÒÀ±¾ðÊ󡡣ƣϥ·¥ê¡¼¥º¤Îµ°Æ»Í×ÁÇ¡¢¥Æ¥ì¥á¥È¥ê¡¢£Ñ£Ó£Ï¤Î¾õ¶·Åù¤ò
   ¤Þ¤È¤á¤Æ¤ß¤Þ¤·¤¿¡¥

  1¡Ë  £Æ£Ï¡Ý£²£¹¡Ê¤Õ¤¸£³¹æ¡Ë¤Ï¡¢£¶·î£±£·Æü¡ÊÌÚ¡Ë£±4¡§£°£µ¡Ê£Ê£Ó£Ô¡Ë¤Î
     ¥Ñ¥¹¤Ç¤Ï£Ê£Á¥¢¥Ê¥í¥°¥â¡¼¥É¤Ç±¿ÍѤµ¤ì¤Æ¤¤¤Þ¤·¤¿¤¬£±£´¡§£±£±¡Ê£Ê£Ó£Ô¡Ë
¡¡¡¡¤è¤ê£Ê£Ä¥Ç¥£¥¸¥¿¥ë¥â¡¼¥É¤ËÀÚ¤êÂؤï¤ê±¿ÍѤµ¤ì»Ï¤á¤Þ¤·¤¿. 
       
 ¢£ µ°Æ»Í×ÁÇ£±¡§¡Öjamsat¡Ýkeps¡§£¸£¹£µ¡×¤è¤ê
              SB KEPS @ AMSAT  $ORB99162.N
¡¡¡¡¡¡¡¡¡¡¡¡¡¡2Line Orbital Elements 99162.AMSAT

¡¡HR AMSAT ORBITAL ELEMENTS FOR AMATEUR SATELLITES IN NASA FORMAT
¡¡FROM WA5QGD FORT WORTH,TX June 11, 1999
¡¡SEND SUBSCRIBE/UNSUBSCRIBE TO majordomo@amsat.org ONLY
¡¡BID: ORB99162.N
¡¡¡¡
 DECODE 2-LINE ELSETS WITH THE FOLLOWING KEY:
 1 AAAAAU 00  0  0 BBBBB.BBBBBBBB  .CCCCCCCC  00000-0  00000-0 0  DDDZ
 2 AAAAA EEE.EEEE FFF.FFFF GGGGGGG HHH.HHHH III.IIII JJ.JJJJJJJJKKKKKZ
 KEY: A-CATALOGNUM B-EPOCHTIME C-DECAY D-ELSETNUM E-INCLINATION F-RAAN
 G-ECCENTRICITY H-ARGPERIGEE I-MNANOM J-MNMOTION K-ORBITNUM Z-CHECKSUM

 TO ALL RADIO AMATEURS BT

  FO-29
¡¡1 24278U 96046B   99161.40613156  .00000046  00000-0  80315-4 0  2512
¡¡2 24278  98.5617 113.4596 0352139 111.7145 252.1868 13.52670067138891

 ¢£ µ°Æ»Í×ÁÇ£²¡§¡Öjamsat¡Ýkeps¡§£¸£¹£´¡×¤è¤ê                         
¡¡¡¡¡¡¡¡¡¡¡¡¡¡¡¡¡¡SB KEPS @ AMSAT  $ORB99162.O
¡¡¡¡¡¡¡¡¡¡¡¡¡¡¡¡¡¡Orbital Elements  99162.OSCAR

¡¡HR AMSAT ORBITAL ELEMENTS FOR OSCAR SATELLITES
¡¡FROM WA5QGD FORT WORTH,TX June 11, 1999
¡¡SEND SUBSCRIBE/UNSUBSCRIBE TO majordomo@amsat.org ONLY
¡¡BID: ORB99162.O
¡¡TO ALL RADIO AMATEURS BT
¡¡
  Satellite: FO-29
¡¡Catalog number: 24278
¡¡Epoch time:      99161.40613156
¡¡Element set:     251
¡¡Inclination:       98.5617 deg
¡¡RA of node:       113.4596 deg
¡¡Eccentricity:    0.0352139
¡¡Arg of perigee:   111.7145 deg
¡¡Mean anomaly:     252.1868 deg
¡¡Mean motion:   13.52670067 rev/day
¡¡Decay rate:        4.6e-07 rev/day^2
¡¡Epoch rev:           13889
¡¡Checksum:              321
 -----------------------------------------------------------
  £²)£Æ£Ï¡Ý£²£¹¡Ê¤Õ¤¸£³¹æ¡Ë¤Î £¶·î£±£·Æü¡ÊÌڡˤΣ±4¡§£°£µ¤Î¥Ñ¥¹¤Ç¤Ï£Ê£Á¥¢¥Ê¥í¥°
¡¡¡¡¥â¡¼¥É¤Ç±¿ÍѤµ¤ì£±£´¡§£±£±¡Ê£Ê£Ó£Ô¡Ë¤è¤ê£Ê£Ä¥Ç¥£¥¸¥¿¥ë¥â¡¼¥É¤Ç±¿ÍѤµ¤ì»Ï¤á¤Þ¤·¤¿.
¡¡¡¡£±£´Æü¤«¤é¤Î¥Æ¥ì¥á¥È¥ê¤Î°ìÉôʬ¤Ï¼¡¤Î¤è¤¦¤Ë¤Ê¤Ã¤Æ¤¤¤Þ¤·¤¿.
¡¡¡¡
¡¡¡¡AS13981C   17Jun99
¡¡¡¡JST  14:05 - 14:11
 
¡¡HI HI AE 07 88 55 01 5D FF 0D 00 16 84 49 7F 46 94 91 B0 86 BE BC BD BD B9 
¡¡HI HI AE C7 88 55 06 5D 0A 0D 00 16 80 4A 7E 60 94 90 B0 86 BE BC BD BD B9 
¡¡HI HI AE C7 88 55 0B 5D FF 0D 00 16 52 49 7E 60 93 90 9E 8E BD BC BD BD B9 
¡¡HI HI EE 07 88 55 15 5E 1E 25 00 16 5E 4A 7E 59 94 91 9E 8D BD BB BD BD B9 
¡¡HI HI EE 07 88 55 1A 5E FF 0D 00 16 75 47 7A 59 54 91 9F 8C BD BB BD BD B9 
¡¡HI HI EE 07 88 55 1F 5E FF 0D 00 16 62 37 7E 5A 95 92 9F 8E BD BB BD BD BA 

¡¡JST 14:11 - 14:21

¡¡cwe:MODE JAS
¡¡MODE     was CWE
¡¡cmd:8J1JCS>BEACON [06/17/99  14:11:56]:9C 03 63 08 00 5F 00 00 00 00
¡¡00 00 6E 39 36 82 60 94 91 B0
¡¡AA 52 A8 02 C9 BA BD BB BC BD
                                      
¡¡8J1JCS>BEACON [06/17/99  14:11:57]:95 02 00 09 00 00 38 40 00 00
¡¡9B CA CB 1D 24 98 9D 81 7E 81
¡¡00 00 00 B4 80 B3 F7 00 00 00
                                      
¡¡8J1JCS>BEACON [06/17/99  14:12:39]:
¡¡JAS-2    '97/06/17 05:07:38
¡¡9C 03 63 08 00 5F 00 00 00 00
¡¡00 00 6E 39 4A 8A 5F 93 90 B0
¡¡AA 52 A8 02 CD BA BD BB BC BC
         
¡¡8J1JCS>BEACON [06/17/99  14:12:42]:
¡¡Total    3 File(s)

¡¡ No.  Date  UTC    To    From   Size   Subject
¡¡0004 06/01 19:55 ALL    N5ZNL       83 Hi !!!
¡¡0003 05/31 20:
¡¡8J1JCS>BEACON [06/17/99  14:12:44]:50 ALL    N5ZNL       22 Greeting From MS. USA
¡¡0001 05/22 04:22 ALL    JN1GKZ      75 hello
                                    
¡¡8J1JCS>BEACON [06/17/99  14:14:02]:9C 03 63 08 00 60 00 00 00 00
¡¡00 00 6E 39 72 8E 60 94 91 B0
¡¡AB 52 A8 02 C9 BA BD BB BB BC
                                      
¡¡8J1JCS>BEACON [06/17/99  14:14:04]:95 02 04 09 00 00 38 40 00 00
¡¡AD CA C8 33 22 9B A0 82 7E 81
¡¡00 00 00 B2 81 B3 F7 00 00 00
                                      
¡¡8J1JCS>BEACON [06/17/99  14:14:09]:9C 03 63 08 00 60 00 00 00 00
¡¡00 00 6E 39 77 88 5F 93 90 B0
¡¡AA 52 A8 02 E3 BA BD BB BB BC
                                      
¡¡8J1JCS>BEACON [06/17/99  14:14:10]:95 02 04 09 00 00 38 40 00 00
¡¡B2 CA CE 33 21 9B A0 82 7E 82
¡¡00 00 00 B2 82 B3 F7 00 00 00
                                      
¡¡8J1JCS>BEACON [06/17/99  14:14:11]:9C 03 63 08 00 60 00 00 00 00
¡¡00 00 6E 39 77 87 60 93 90 B0
¡¡AA 52 A8 02 E2 BA BD BB BB BC
                                      
¡¡8J1JCS>BEACON [06/17/99  14:14:12]:95 02 04 09 00 00 38 40 00 00
¡¡B2 CA CE 33 21 9B A0 82 7E 82
¡¡00 00 00 B2 82 B3 F7 00 00 00
                                      
¡¡8J1JCS>BEACON [06/17/99  14:14:43]:
¡¡Total    3 File(s)

¡¡ No.  Date  UTC    To    From   Size   Subject
¡¡0004 06/01 19:55 ALL    N5ZNL       83 Hi !!!
¡¡0003 05/31 20:
¡¡8J1JCS>BEACON [06/17/99  14:14:44]:50 ALL    N5ZNL       22 Greeting From MS. USA
¡¡0001 05/22 04:22 ALL    JN1GKZ      75 hello
                                    
¡¡8J1JCS>BEACON [06/17/99  14:14:57]:9C 03 63 08 00 62 00 00 00 00
¡¡00 00 6E 3A 32 8E 60 95 92 B0
¡¡AB 52 A8 02 E4 BA BD BB BB BC
                                      
¡¡8J1JCS>BEACON [06/17/99  14:14:58]:95 02 00 09 00 00 38 40 00 00
¡¡AC CA C8 42 60 9D A1 82 7F 82
¡¡00 00 00 B2 81 B3 F7 00 00 00
                                      
¡¡8J1JCS>BEACON [06/17/99  14:14:59]:9C 03 63 08 00 62 00 00 00 00
¡¡00 00 6E 3A 32 8F 60 95 92 B0
¡¡AA 52 A8 02 CA BA BD BB BB BC
                                      
¡¡8J1JCS>BEACON [06/17/99  14:15:00]:95 02 00 09 00 00 38 40 00 00
¡¡AC CA C8 42 60 9D A1 82 7F 82
¡¡00 00 00 B2 81 B3 F7 00 00 00
                                      
¡¡8J1JCS>BEACON [06/17/99  14:15:13]:9C 03 63 08 00 62 00 00 00 00
¡¡00 00 6E 3A 37 95 60 93 90 B0
¡¡AA 52 A9 02 E3 BA BD BB BB BC
                                      
¡¡8J1JCS>BEACON [06/17/99  14:15:14]:95 02 00 09 00 00 38 40 00 00
¡¡AC CA D0 42 60 9D A1 82 7F 82
¡¡00 00 00 B1 81 B3 F7 00 00 00
                                      
¡¡8J1JCS>BEACON [06/17/99  14:15:15]:9C 03 63 08 00 62 00 00 00 00
¡¡00 00 6E 3A 37 95 5F 93 90 B0
¡¡AA 52 A8 02 CA BA BD BB BB BC
                                      
¡¡8J1JCS>BEACON [06/17/99  14:15:16]:95 02 00 09 00 00 38 40 00 00
¡¡AC CA D0 42 60 9D A1 82 7F 82
¡¡00 00 00 B1 81 B3 F7 00 00 00
                                      
¡¡8J1JCS>BEACON [06/17/99  14:15:22]:9C 03 63 08 00 62 00 00 00 00
¡¡00 00 6E 3A 3C 8D 60 93 90 B0
¡¡AA 52 A9 02 E3 BA BD BB BB BC
                                      
¡¡8J1JCS>BEACON [06/17/99  14:16:39]:
¡¡JAS-2    '97/06/17 05:17:02
¡¡9C 03 63 08 00 62 00 00 00 00
¡¡00 00 6E 3A 64 91 60 93 90 B0
¡¡AA 52 A7 02 BD BA BD BB BB BC
         
¡¡8J1JCS>BEACON [06/17/99  14:16:40]:95 02 00 09 00 00 38 40 00 00
¡¡A6 CA CA 61 61 9E A3 82 7F 82
¡¡00 00 00 B0 81 B3 F7 00 00 00
                                      
¡¡8J1JCS>BEACON [06/17/99  14:16:41]:
¡¡User not connect.
                                                                             
¡¡Total  3 File(s)

¡¡ No.  Date  UTC    To    From   Size   Subject
¡¡0004 06/01 19:55 ALL    N5ZNL       83 Hi !!!
¡¡0003 05/31 20:
¡¡8J1JCS>BEACON [06/17/99  14:16:44]:50 ALL    N5ZNL       22 Greeting From MS. USA
¡¡0001 05/22 04:22 ALL    JN1GKZ      75 hello
                                    
¡¡8J1JCS>BEACON [06/17/99  14:18:39]:
¡¡JAS-2    '97/06/17 05:19:02
¡¡9C 03 63 08 00 62 00 00 00 00
¡¡00 00 6E 3A A0 87 60 94 91 B0
¡¡AA 52 A8 02 DF BA BC BB BA BB
         
¡¡8J1JCS>BEACON [06/17/99  14:18:40]:95 02 00 09 00 00 38 40 00 00
¡¡97 CA D0 7D 62 9F A4 84 80 82
¡¡00 00 00 AF 81 B3 F7 00 00 00
                                      
¡¡8J1JCS>BEACON [06/17/99  14:18:41]:
¡¡User not connect.
                                                                             
¡¡8J1JCS>BEACON [06/17/99  14:18:43]:
¡¡Total    3 File(s)

¡¡ No.  Date  UTC    To    From   Size   Subject
¡¡0004 06/01 19:55 ALL    N5ZNL       83 Hi !!!
¡¡0003 05/31 20:
¡¡8J1JCS>BEACON [06/17/99  14:18:44]:50 ALL    N5ZNL       22 Greeting From MS. USA
¡¡0001 05/22 04:22 ALL    JN1GKZ      75 hello
                                    
¡¡8J1JCS>BEACON [06/17/99  14:20:39]:
¡¡JAS-2    '97/06/17 05:21:02
¡¡9C 03 63 08 00 62 00 00 00 00
¡¡00 00 6E 3A DC 7F 60 94 91 B0
¡¡AA 52 A8 02 CB BA BC BB BA BB
         
¡¡8J1JCS>BEACON [06/17/99  14:20:40]:95 02 00 09 00 00 38 40 00 00
¡¡88 CA DA 92 66 A0 A4 83 80 83
¡¡00 00 00 AF 82 B3 F7 00 00 00
                                      
¡¡8J1JCS>BEACON [06/17/99  14:20:41]:
¡¡User not connect.
                                                                                 
¡¡8J1JCS>BEACON [06/17/99  14:20:43]:
¡¡Total    3 File(s)

¡¡ No.  Date  UTC    To    From   Size   Subject
¡¡0004 06/01 19:55 ALL    N5ZNL       83 Hi !!!
¡¡0003 05/31 20:
¡¡8J1JCS>BEACON [06/17/99  14:20:44]:50 ALL    N5ZNL       22 Greeting From MS. USA
¡¡0001 05/22 04:22 ALL    JN1GKZ      75 hello

¡¡¡¡AS13980C  17Jun99
¡¡¡¡JST  12:24 - 12:33

